Location: Newark
(48.9000°N, 0.7000°E)
Time: 23:19:27
(UTC+00:00)

Envisat - Visible Passes

Search period start: 30 September 2020 00:00
Search period end: 10 October 2020 00:00
Orbit: 764 x 766 km, 98.1° (Epoch: 30 September)

Date Brightness Start Highest point End Pass type
(mag) Time Alt. Az. Time Alt. Az. Time Alt. Az.
30 Sep 6.1 18:23:01 10° SW 18:26:37 19° W 18:30:14 10° NW visible
01 Oct 6.1 04:48:02 10° NE 04:51:18 17° E 04:54:33 10° SE visible
02 Oct 6.6 18:50:48 10° WSW 18:52:25 11° W 18:54:02 10° WNW visible
03 Oct 5.5 05:12:41 10° NE 05:17:01 27° E 05:21:19 10° SSE visible
03 Oct 5.8 18:11:05 10° SW 18:15:08 24° W 18:19:13 10° NW visible
04 Oct 6.3 04:37:17 10° ENE 04:39:47 14° E 04:42:15 10° ESE visible
05 Oct 6.3 18:38:10 10° WSW 18:40:53 14° W 18:43:37 10° NW visible
06 Oct 5.8 05:01:35 10° NE 05:05:33 22° E 05:09:29 10° SE visible
06 Oct 5.4 17:59:16 10° SSW 18:03:39 29° W 18:08:05 10° NNW visible
07 Oct 6.7 04:27:08 10° ENE 04:28:14 11° E 04:29:19 10° E visible
08 Oct 4.9 05:26:30 10° NNE 05:31:13 36° E 05:35:52 10° SSE visible
08 Oct 6.2 18:25:58 10° SW 18:29:23 18° W 18:32:48 10° NW visible
09 Oct 6.1 04:50:34 10° NE 04:54:03 18° E 04:57:30 10° SE visible
09 Oct 4.9 17:47:34 10° SSW 17:52:13 36° W 17:56:54 10° NNW visible
